Вернуться в каталог

AMAZONAS 4A

АктивенСвязьGEO
NORAD 39616·PAYLOAD·🇧🇷 Brazil

Запущен Mar 22, 2014 с Guiana Space Centre

Loading…

TLE

СвежийSource: Space-Track

Эпоха: Sep 14, 2026, 11:44 UTC

1 39616U 14011A   26257.48920609 -.00000261  00000-0  00000-0 0  9992
2 39616   0.0509 178.6596 0006044   4.6619 272.2653  1.00273196 45604

Отслеживайте AMAZONAS 4A в реальном времени с AllMySat

Download on the App Store